Flag for Saudi Arabia Weather past 2 weeks in Makkah, Saudi Arabia

Now
91 °F

Clear.


Feels Like: 103 °F
Forecast: 74 / 108 °F
Wind: 9 mph from Northwest

Location: Jeddah King Abdul Aziz International Airport

Current Time: Sep 2, 2015 at 8:40:19 PM

Latest Report: Sep 2, 2015 at 8:00 PM


Visibility: 10 mi

Pressure: 29.68 "Hg

Humidity: 59%

Dew point: 75 °F

Location of MakkahLocation

Historic Weather in Makkah — Graph

°F

Makkah temperature yesterday

Maximum temperature yesterday: 100 °F (at 2:00 PM)
Minimum temperature yesterday: 88 °F (at 5:00 AM)
Average temperature yesterday: 93 °F

Past Weeks' High & Low Weather Summary

 TemperatureHumidityPressure
High120 °F (Aug 20, 12:00 PM)84% (Aug 24, 5:00 AM)29.77 "Hg (Aug 24, 5:00 AM)
Low88 °F (Aug 19, 5:00 AM)5% (Aug 20, 12:00 PM)29.50 "Hg (Aug 20, 2:00 PM)
Average94 °F58%29.62 "Hg
* Reported Aug 18 7:00 PM — Sep 2 7:00 PM, Makkah, Weather by CustomWeather, © 2015

Note: Actual official high and low records may vary slightly from our data, if they occured in-between our weather recording intervals... More about our weather records

Advertising

Makkah weather history for previous 24 hours

 ConditionsComfort  
Time TempWeatherWind HumidityBarometerVisibility
7:00 PM
Wed, Sep 2
91 °FClear.12 mph59%29.68 "Hg10 mi
6:00 PM93 °FSunny.14 mph56%29.65 "Hg10 mi
5:00 PM93 °FSunny.14 mph56%29.65 "Hg10 mi
4:00 PM95 °FSunny.16 mph53%29.65 "Hg10 mi
3:00 PM95 °FSunny.14 mph53%29.65 "Hg10 mi
2:00 PM95 °FSunny.14 mph50%29.68 "Hg10 mi
1:00 PM95 °FSunny.14 mph47%29.68 "Hg10 mi
12:00 PM95 °FSunny.9 mph47%29.68 "Hg10 mi
11:00 AM97 °FSunny.12 mph44%29.68 "Hg10 mi
10:00 AM95 °FPassing clouds.9 mph50%29.71 "HgN/A
9:00 AM93 °FPassing clouds.7 mph56%29.68 "HgN/A
8:00 AM90 °FScattered clouds.5 mph63%29.68 "HgN/A
7:00 AM88 °FScattered clouds.No wind66%29.68 "HgN/A
6:00 AM88 °FPassing clouds.8 mph62%29.65 "HgN/A
5:00 AM88 °FPassing clouds.12 mph66%29.62 "HgN/A
4:00 AM88 °FPassing clouds.12 mph66%29.62 "HgN/A
3:00 AM90 °FPassing clouds.7 mph52%29.65 "HgN/A
2:00 AM90 °FPassing clouds.3 mph55%29.65 "HgN/A
12:00 AM91 °FPassing clouds.5 mph59%29.71 "HgN/A
11:00 PM
Tue, Sep 1
90 °FPassing clouds.8 mph63%29.68 "HgN/A
10:00 PM91 °FPassing clouds.9 mph63%29.68 "HgN/A
9:00 PM91 °FClear.9 mph63%29.68 "Hg10 mi
8:00 PM91 °FClear.14 mph63%29.68 "Hg10 mi
Weather by CustomWeather, © 2015

See weather overviewHow to use our weather pages